FW2502 Weather Reports


Display with metric or nautical units.
time (UTC)temp
F
wind
direction
speed
MPH
gust
MPH
rain 1hr
in
rain 24hr
in
rain mn
in
humidity
%
barometer
mb
20210615071720 75 194 0.0 0.0 0.00 0.00 0.00 76 1008.3
20210615070658 75 195 0.0 0.0 0.00 0.00 0.00 76 1008.6
20210615065717 76 196 0.0 0.0 0.00 0.00 0.00 76 1008.5
20210615064655 76 196 0.0 0.0 0.00 0.00 0.00 75 1008.7
20210615063650 76 193 0.0 0.0 0.00 0.00 0.00 75 1008.5
20210615062640 76 193 0.0 0.0 0.00 0.00 0.00 74 1008.7
20210615061613 76 132 0.0 0.0 0.00 0.00 0.00 74 1008.9
20210615060544 77 200 0.0 0.0 0.00 0.00 0.00 74 1009.0
20210615055545 77 173 0.0 1.0 0.00 0.00 0.00 73 1009.1
20210615054550 77 171 0.0 2.0 0.00 0.00 0.00 73 1009.2
20210615053612 77 184 0.0 1.0 0.00 0.00 0.00 73 1009.2
20210615052603 77 205 0.0 1.0 0.00 0.00 0.00 72 1009.3
20210615051600 77 159 0.0 2.0 0.00 0.00 0.00 72 1009.4
20210615050605 77 188 0.0 2.0 0.00 0.00 0.00 73 1009.6
20210615045542 77 214 0.0 2.0 0.00 0.00 0.00 73 1009.6
20210615044602 77 194 0.0 2.0 0.00 0.00 0.00 74 1009.8
20210615043610 77 190 0.0 1.0 0.00 0.00 0.00 74 1009.8
20210615042616 77 184 0.0 2.0 0.00 0.00 0.00 75 1009.8
20210615041639 77 164 0.0 2.0 0.00 0.00 0.00 74 1009.8
20210615040616 77 188 0.0 1.0 0.00 0.00 0.00 74 1009.8
20210615035554 77 152 0.0 2.0 0.00 0.00 0.00 74 1010.0
20210615034549 77 218 0.0 2.0 0.00 0.00 0.00 74 1010.1
20210615033541 77 170 0.0 1.0 0.00 0.00 0.00 74 1009.9
20210615032516 78 196 0.0 2.0 0.00 0.00 0.00 73 1009.7
20210615031454 78 140 0.0 0.0 0.00 0.00 0.00 73 1009.9
20210615030504 78 186 0.0 1.0 0.00 0.00 0.00 73 1010.0
20210615025444 78 142 0.0 0.0 0.00 0.00 0.00 72 1009.9
20210615024412 79 190 0.0 1.0 0.00 0.00 0.00 72 1009.8
20210615023412 79 153 0.0 3.0 0.00 0.00 0.00 72 1009.7
20210615022425 79 161 0.0 0.0 0.00 0.00 0.00 72 1009.6
20210615021417 80 171 0.0 1.0 0.00 0.00 0.00 72 1009.5
20210615020408 80 128 0.0 0.0 0.00 0.00 0.00 72 1009.4
20210615015408 80 126 0.0 0.0 0.00 0.00 0.00 72 1009.3
20210615014400 80 123 0.0 1.0 0.00 0.00 0.00 72 1009.4
20210615013350 81 157 0.0 3.0 0.00 0.00 0.00 71 1009.4
20210615012325 81 144 0.0 3.0 0.00 0.00 0.00 71 1009.1
20210615011259 82 167 0.0 0.0 0.00 0.00 0.00 69 1009.0
20210615010239 82 134 0.0 0.0 0.00 0.00 0.00 67 1008.9
20210615005256 83 170 0.0 0.0 0.00 0.00 0.00 66 1008.9
20210615004314 83 170 0.0 0.0 0.00 0.00 0.00 65 1008.9
20210615003256 83 170 0.0 0.0 0.00 0.00 0.00 65 1008.9
20210615002306 84 170 0.0 0.0 0.00 0.00 0.00 64 1008.8
20210615001321 84 170 0.0 0.0 0.00 0.00 0.00 63 1008.8
20210615000330 85 170 0.0 0.0 0.00 0.00 0.00 63 1008.8
20210614235330 85 170 0.0 0.0 0.00 0.00 0.00 62 1008.8
20210614234341 86 171 0.0 0.0 0.00 0.00 0.00 62 1008.9
20210614233312 86 160 0.0 0.0 0.00 0.00 0.00 61 1008.8
20210614232319 86 192 0.0 0.0 0.00 0.00 0.00 60 1008.8
20210614231331 87 192 0.0 0.0 0.00 0.00 0.00 60 1008.8
20210614230307 87 200 0.0 1.0 0.00 0.00 0.00 59 1008.6
20210614225314 88 201 0.0 0.0 0.00 0.00 0.00 58 1008.6
20210614224331 89 174 0.0 0.0 0.00 0.00 0.00 58 1008.5
20210614223346 90 171 0.0 0.0 0.00 0.00 0.00 57 1008.6
20210614222400 90 192 0.0 1.0 0.00 0.00 0.00 57 1008.4
20210614221342 91 195 0.0 1.0 0.00 0.00 0.00 56 1008.4
20210614220329 90 191 0.0 0.0 0.00 0.00 0.00 57 1008.3
20210614215305 90 138 0.0 0.0 0.00 0.00 0.00 57 1008.4
20210614214259 90 107 0.0 1.0 0.00 0.00 0.00 57 1008.7
20210614213254 90 288 0.0 0.0 0.00 0.00 0.00 57 1008.9
20210614212225 89 207 0.0 1.0 0.00 0.00 0.00 57 1009.0
20210614211226 90 182 0.0 1.0 0.00 0.00 0.00 57 1008.9
20210614210245 90 192 0.0 1.0 0.00 0.00 0.00 57 1009.0
20210614205308 91 254 0.0 0.0 0.00 0.00 0.00 56 1009.0
20210614204311 90 117 0.0 0.0 0.00 0.00 0.00 56 1008.9
20210614203251 90 208 0.0 1.0 0.00 0.00 0.00 56 1009.0
20210614202248 90 110 0.0 1.0 0.00 0.00 0.00 56 1009.1
20210614201213 90 254 0.0 1.0 0.00 0.00 0.00 56 1009.2
20210614200158 89 169 0.0 1.0 0.00 0.00 0.00 57 1009.6
20210614195211 89 188 0.0 3.0 0.00 0.00 0.00 56 1009.8
20210614194232 90 196 0.0 2.0 0.00 0.00 0.00 57 1009.8
20210614193243 89 207 0.0 1.0 0.00 0.00 0.00 57 1009.7
20210614192220 89 292 0.0 0.0 0.00 0.00 0.00 57 1009.7
20210614191218 89 225 0.0 0.0 0.00 0.00 0.00 57 1009.7
20210614190155 90 184 0.0 2.0 0.00 0.00 0.00 56 1009.7
20210614185138 90 348 0.0 2.0 0.00 0.00 0.00 55 1009.8
20210614184116 90 130 0.0 4.0 0.00 0.00 0.00 55 1010.0
20210614183124 90 248 0.0 4.0 0.00 0.00 0.00 57 1010.1
20210614182108 90 198 0.0 1.0 0.00 0.00 0.00 56 1010.1
20210614181104 89 272 0.0 2.0 0.00 0.00 0.00 57 1010.2
20210614180029 89 208 0.0 2.0 0.00 0.00 0.00 56 1010.2
20210614175051 89 215 0.0 0.0 0.00 0.00 0.00 58 1010.4
20210614174028 88 182 0.0 0.0 0.00 0.00 0.00 58 1010.5
20210614173000 88 288 0.0 1.0 0.00 0.00 0.00 59 1010.5
20210614171939 87 115 0.0 0.0 0.00 0.00 0.00 59 1010.7
20210614170935 86 99 0.0 0.0 0.00 0.00 0.00 61 1010.8
20210614165930 86 296 0.0 0.0 0.00 0.00 0.00 64 1010.9
20210614164922 86 263 0.0 0.0 0.00 0.00 0.00 66 1011.0
20210614163912 85 209 0.0 0.0 0.00 0.00 0.00 67 1011.1
20210614162851 85 28 0.0 0.0 0.00 0.00 0.00 67 1011.1
20210614161907 85 198 0.0 0.0 0.00 0.00 0.00 68 1011.2
20210614160854 84 173 0.0 0.0 0.00 0.00 0.00 69 1011.3
20210614155826 84 297 0.0 0.0 0.00 0.00 0.00 67 1011.4
20210614154758 84 55 0.0 1.0 0.00 0.00 0.00 68 1011.4
20210614153740 84 262 0.0 0.0 0.00 0.00 0.00 69 1011.5
20210614152730 83 205 0.0 0.0 0.00 0.00 0.00 71 1011.3
20210614151723 83 336 0.0 0.0 0.00 0.00 0.00 71 1011.3
20210614150716 83 227 0.0 0.0 0.00 0.00 0.00 70 1011.2
20210614145738 82 10 0.0 0.0 0.00 0.00 0.00 70 1011.2
20210614144736 82 200 0.0 0.0 0.00 0.00 0.00 71 1011.3
20210614143715 82 302 0.0 0.0 0.00 0.00 0.00 73 1011.2
20210614142727 81 304 0.0 0.0 0.00 0.00 0.00 75 1011.1
20210614141656 81 223 0.0 0.0 0.00 0.00 0.00 72 1011.1
20210614140715 80 355 0.0 0.0 0.00 0.00 0.00 75 1011.2
20210614135643 79 312 0.0 0.0 0.00 0.00 0.00 79 1011.2
20210614134646 79 188 0.0 0.0 0.00 0.00 0.00 78 1011.3
20210614133631 79 219 0.0 0.0 0.00 0.00 0.00 79 1011.3
20210614132633 79 254 0.0 0.0 0.00 0.00 0.00 80 1011.4
20210614131624 78 271 0.0 0.0 0.00 0.00 0.00 82 1011.6
20210614130612 77 246 0.0 0.0 0.00 0.00 0.00 81 1011.6
20210614125623 77 225 0.0 0.0 0.00 0.00 0.00 82 1011.7
20210614124606 76 264 0.0 0.0 0.00 0.00 0.00 84 1011.8
20210614123625 76 264 0.0 0.0 0.00 0.00 0.00 84 1011.7
20210614122649 75 264 0.0 0.0 0.00 0.00 0.00 83 1011.6
20210614121702 75 28 0.0 0.0 0.00 0.00 0.00 84 1011.5
20210614120656 75 346 0.0 0.0 0.00 0.00 0.00 83 1011.5
20210614115709 74 346 0.0 0.0 0.00 0.00 0.00 85 1011.4
20210614114720 73 346 0.0 0.0 0.00 0.00 0.00 88 1011.4
20210614113733 71 346 0.0 0.0 0.00 0.00 0.00 92 1011.4
20210614112701 69 346 0.0 0.0 0.00 0.00 0.00 93 1011.4
20210614111703 68 346 0.0 0.0 0.00 0.00 0.00 94 1011.3
20210614110643 68 346 0.0 0.0 0.00 0.00 0.00 94 1011.2
20210614105616 67 9 0.0 0.0 0.00 0.00 0.00 94 1011.1
20210614104636 67 9 0.0 0.0 0.00 0.00 0.00 94 1011.1
20210614103653 66 9 0.0 0.0 0.00 0.00 0.00 93 1011.1
20210614102638 66 9 0.0 0.0 0.00 0.00 0.00 93 1011.0
20210614101616 66 9 0.0 0.0 0.00 0.00 0.00 93 1011.3
20210614100626 66 9 0.0 0.0 0.00 0.00 0.00 93 1011.4
20210614095650 66 9 0.0 0.0 0.00 0.00 0.00 93 1011.1
20210614094628 66 9 0.0 0.0 0.00 0.00 0.00 93 1011.0
20210614093623 66 24 0.0 0.0 0.00 0.00 0.00 92 1010.8
20210614092624 66 24 0.0 0.0 0.00 0.00 0.00 92 1010.6
20210614091600 67 24 0.0 0.0 0.00 0.00 0.00 92 1010.7
20210614090606 67 24 0.0 0.0 0.00 0.00 0.00 92 1010.9
20210614085608 67 24 0.0 0.0 0.00 0.00 0.00 91 1011.1
20210614084550 67 24 0.0 0.0 0.00 0.00 0.00 91 1011.0
20210614083545 67 24 0.0 0.0 0.00 0.00 0.00 91 1011.3
20210614082538 67 24 0.0 0.0 0.00 0.00 0.00 91 1011.3
20210614081603 67 24 0.0 0.0 0.00 0.00 0.00 91 1011.5
20210614080556 67 24 0.0 0.0 0.00 0.00 0.00 91 1011.3
20210614075535 67 24 0.0 0.0 0.00 0.00 0.00 90 1011.1
20210614074521 67 42 0.0 0.0 0.00 0.00 0.00 90 1010.7
20210614073500 67 42 0.0 0.0 0.00 0.00 0.00 88 1010.3
20210614072453 67 42 0.0 0.0 0.00 0.00 0.00 88 1010.0